Dewpoint
25 26 25 25 24 24 23 23 23 23 22 22 21 20 19 20 20 20 19 19 19 19 18 19 19 21 21 21 21 20 20 18 15 14 12 11 10 11 11 13 14 12 13
25 25 25 25 24 23 23 22 23 22 22 21 20 20 19 18 19 19 19 19 19 18 18 18 18 20 19 18 17 16 16 17 15 13 11 10 10 11 12 12 12 12 13
26 25 25 24 24 23 22 22 22 22 22 21 20 19 18 18 18 17 17 17 16 15 16 17 17 18 17 15 14 13 13 11 13 12 11 12 12 13 13 14 16 17 15
27 25 24 24 24 24 24 22 22 22 21 21 20 19 18 17 16 16 15 16 15 15 16 16 15 15 16 14 13 13 13 13 12 12 12 12 13 14 16 15 15 16 15
28 28 26 25 24 24 25 25 23 22 21 20 20 19 18 17 16 15 14 17 16 14 14 14 13 14 18 16 13 13 13 12 12 12 12 14 15 14 14 15 14 16 16
28 28 28 28 26 25 25 25 23 22 22 21 20 20 18 15 22 23 17 16 16 12 12 11 11 15 17 20 20 19 16 9 4 8 14 15 15 15 14 14 15 15 14
29 28 28 27 27 26 24 24 23 22 22 20 20 19 18 17 23 25 24 16 15 10 9 9 9 11 14 16 21 20 20 22 18 15 17 17 15 14 15 17 18 18 16
28 27 27 26 25 25 23 24 23 22 21 21 20 19 18 17 23 27 26 16 15 10 8 8 9 11 13 15 17 20 19 19 18 16 16 15 15 16 20 20 19 14 11
28 28 27 26 24 24 24 23 23 22 22 22 22 21 20 20 23 28 26 18 16 12 8 9 10 11 17 19 14 14 16 16 17 20 21 22 21 20 19 14 5 2 5
24 26 26 25 22 22 22 22 23 23 23 21 22 22 21 21 22 28 27 18 16 14 12 10 17 12 18 21 14 13 12 15 17 15 18 17 16 13 14 12 9 -2 5
21 21 26 26 23 21 20 18 18 21 21 21 19 21 20 20 20 27 28 19 16 16 15 16 14 18 19 22 21 16 15 17 17 13 11 10 8 7 8 9 9 10 7
17 19 20 22 24 22 18 17 15 18 19 17 14 15 17 17 19 26 28 22 21 17 17 15 14 20 20 22 22 21 21 17 6 4 1 3 5 6 7 8 8 9 10
13 13 14 17 22 21 21 19 18 18 16 15 15 14 14 15 16 22 28 27 21 17 16 16 18 21 22 22 23 22 17 9 4 2 1 3 4 5 6 7 7 8 8
8 8 10 11 15 21 20 20 19 18 17 17 14 14 13 13 15 17 25 28 23 19 20 19 20 22 23 17 19 17 10 7 5 4 5 4 5 5 6 6 6 5 4
4 5 6 8 11 17 20 19 18 20 20 18 18 18 16 14 15 20 25 26 23 18 19 19 19 16 14 10 8 7 6 5 5 5 5 4 4 4 4 5 5 3 1
0 1 4 6 8 11 18 18 21 23 23 25 25 22 20 21 22 25 28 29 25 23 17 15 13 11 10 8 6 4 4 5 4 4 4 3 2 2 3 3 3 1 0
-2 -0 2 5 6 9 14 16 15 17 23 25 26 26 25 21 24 25 27 30 27 24 15 12 10 9 9 8 6 4 3 4 3 2 1 1 1 1 0 -0 0 1 0
-2 0 2 4 6 8 11 15 15 15 14 18 24 25 27 25 25 25 27 29 25 21 12 10 8 8 7 5 4 3 2 1 -0 -0 -1 -2 -4 -5 -5 -4 -2 -2 -1
-2 -1 2 3 4 7 10 14 15 14 14 16 18 22 25 26 23 25 27 23 20 8 9 9 7 6 4 3 2 0 -1 -3 -5 -6 -8 -10 -10 -10 -7 -4 -2 -1 0
-2 0 -0 1 4 6 8 13 13 13 13 15 15 18 21 22 19 21 23 23 12 9 8 5 4 2 1 -1 -3 -6 -8 -9 -10 -11 -11 -11 -9 -9 -5 -4 -3 -2 -2
-2 -1 -0 1 3 7 10 12 12 12 12 13 15 19 22 17 17 19 21 12 9 5 5 2 -0 -2 -4 -6 -9 -9 -11 -9 -10 -13 -13 -15 -13 -9 -7 -4 -3 -2 1
1 2 3 5 7 11 12 12 11 11 12 13 15 18 23 18 15 8 9 7 5 3 2 -0 -3 -6 -8 -10 -9 -11 -12 -12 -15 -16 -19 -17 -11 -8 -8 -5 -3 -0 2
4 5 7 8 9 10 10 11 11 12 12 14 15 15 12 7 6 3 -1 -2 -2 -4 -4 -5 -7 -10 -11 -11 -12 -11 -11 -13 -15 -18 -18 -16 -12 -11 -8 -5 -2 1 1
2 3 4 6 7 5 6 7 8 10 11 10 4 3 2 2 -1 -3 -3 -4 -5 -8 -8 -9 -9 -10 -13 -16 -15 -17 -19 -19 -19 -19 -20 -16 -12 -10 -7 -3 1 1 -0
0 1 1 2 4 4 4 5 5 2 2 1 -0 -1 -1 -2 -4 -5 -5 -6 -8 -10 -12 -12 -12 -14 -15 -17 -17 -20 -19 -10 -11 -14 -17 -11 -12 -9 -3 -1 1 0 -3
-2 -1 -1 -0 -0 1 1 0 -0 -1 -2 -2 -1 -2 -2 -4 -5 -6 -7 -9 -10 -11 -12 -12 -14 -16 -16 -16 -18 -15 -14 -5 -10 -11 -11 -6 -1 4 -3 -1 -0 -3 -6
Lifted_Index
9 10 10 10 10 10 9 8 8 8 8 9 10 11 12 13 14 14 15 16 17 17 17 18 18 19 19 19 19 20 20 20 19 19 19 20 19 19 19 19 19 19 19
8 8 8 9 10 10 10 9 8 8 8 8 9 10 11 12 13 13 14 15 16 16 17 17 18 18 19 19 19 20 20 20 19 19 19 19 19 20 19 19 20 20 20
7 7 7 8 9 9 9 9 9 9 8 8 9 9 10 11 12 12 13 14 14 15 16 17 17 18 18 18 19 19 20 20 20 18 18 18 19 20 20 19 19 19 20
8 7 6 6 7 8 8 9 9 9 9 9 9 9 9 10 11 11 12 12 13 14 15 16 17 17 18 18 18 19 20 20 19 18 17 17 18 19 18 18 17 18 18
8 8 7 6 6 6 7 7 8 9 9 10 9 9 9 10 10 10 11 11 12 13 15 16 17 17 17 17 18 19 19 18 18 17 16 16 17 17 17 17 17 16 17
9 9 9 8 7 6 6 6 7 8 9 9 9 9 9 10 10 11 11 11 12 13 14 16 17 17 17 17 18 18 18 18 17 16 15 15 16 16 17 17 17 16 15
10 10 10 10 9 8 7 6 6 6 7 8 9 9 9 10 11 12 12 12 12 13 14 15 16 17 17 17 18 18 18 17 17 16 15 15 17 18 18 18 18 17 17
12 12 12 11 11 10 9 8 7 7 7 8 8 9 10 11 12 12 13 13 13 13 15 16 16 17 17 17 17 17 17 17 17 17 17 17 18 19 19 19 18 18 18
14 14 13 13 12 12 10 9 8 8 8 8 9 10 10 11 12 13 13 13 13 14 15 16 17 17 17 17 17 16 16 16 17 17 18 18 19 20 20 20 19 18 18
15 15 15 15 14 13 11 10 9 10 10 10 10 11 11 12 13 14 13 13 13 13 15 16 17 17 18 17 17 16 15 16 16 17 18 18 19 20 21 21 20 19 19
16 16 16 15 14 13 12 10 9 9 9 9 10 11 12 13 13 14 14 13 13 14 15 16 17 17 18 18 17 16 16 16 17 17 17 18 18 19 20 21 21 21 21
16 16 16 15 15 14 13 11 10 9 8 8 9 10 12 13 14 14 15 15 14 14 15 16 17 17 18 18 18 18 17 17 17 17 17 17 17 18 20 21 22 22 22
16 16 16 15 15 14 13 12 11 9 8 8 8 9 11 12 14 15 16 16 16 16 16 17 17 18 19 19 19 19 18 17 17 16 16 17 17 19 20 20 21 21 21
15 15 15 15 15 14 13 12 11 10 9 8 8 8 9 10 12 15 16 17 17 17 17 18 18 19 19 19 19 19 18 17 17 16 16 17 18 19 19 20 20 19 18
15 15 15 15 15 14 13 13 12 11 10 9 8 8 8 8 11 14 16 17 18 18 17 17 18 18 18 18 17 17 17 17 17 17 17 17 17 18 18 19 18 17 16
14 14 15 15 15 14 14 13 13 12 12 11 10 9 9 9 11 14 16 18 18 18 17 16 17 17 17 16 16 16 17 17 17 18 18 17 17 17 17 18 17 16 15
14 14 15 15 15 15 14 13 13 13 12 12 12 11 11 11 12 14 17 19 19 19 17 16 16 17 16 15 15 16 16 17 18 18 18 17 16 16 16 16 16 15 14
15 15 15 15 15 15 14 13 13 12 12 12 12 13 13 14 14 14 16 18 19 19 18 17 17 16 16 16 16 17 17 17 18 18 17 17 16 16 16 15 15 14 14
17 16 15 15 14 14 13 13 12 12 12 12 12 13 14 15 15 15 16 16 17 17 17 17 17 16 16 17 17 18 18 17 17 17 17 16 16 16 15 15 15 14 14
18 17 16 14 13 12 12 12 12 12 12 12 12 13 14 15 14 15 16 17 17 17 17 17 16 16 16 17 18 18 17 17 17 17 17 16 16 16 15 15 15 15 15
18 17 15 13 12 11 11 11 12 12 12 12 13 14 14 15 14 15 17 18 18 18 18 17 16 16 17 17 17 17 16 16 17 17 17 16 16 16 15 15 16 16 16
18 16 14 13 12 12 12 12 12 12 12 12 12 14 15 15 16 16 17 17 18 18 18 17 16 16 17 18 17 17 16 16 17 17 17 16 16 16 16 16 16 16 16
17 16 14 13 13 13 13 13 13 12 12 12 12 13 14 15 15 15 15 16 16 17 17 17 17 17 18 18 17 17 17 17 17 17 17 16 16 16 16 16 16 17 17
17 16 15 15 15 14 14 14 14 13 13 13 13 13 13 14 14 14 14 15 15 16 17 17 18 18 18 18 18 18 18 18 18 18 17 17 16 17 17 17 17 17 17
18 18 17 17 16 16 16 15 15 15 15 15 14 14 14 13 13 14 14 15 16 17 18 18 18 18 18 18 18 18 18 18 18 18 18 17 17 18 18 18 18 18 18
19 19 18 18 17 17 17 17 16 16 16 15 15 15 14 14 14 14 15 16 17 18 18 19 19 18 18 18 18 18 17 17 18 18 18 18 18 18 19 19 19 19 19